SCP
0 0 0 0 0 0 0 0 0 0 0 0 0 0 0 0 0 0 0 0 0 0 0 0 0 0 0 0 0 0 0 0 0 0 0 0 0 0 0 0 0 0 0
0 0 0 0 0 0 0 0 0 0 0 0 0 0 0 0 0 0 0 0 0 0 0 0 0 0 0 0 0 0 0 0 0 0 0 0 0 0 0 0 0 0 0
0 0 0 0 0 0 0 0 0 0 0 0 0 0 0 0 0 0 0 0 0 0 0 0 0 0 0 0 0 0 0 0 0 0 0 0 0 0 0 0 0 0 0
0 0 0 0 0 0 0 0 0 0 0 0 0 0 0 0 0 0 0 0 0 0 0 0 0 0 0 0 0 0 0 0 0 0 0 0 0 0 0 0 0 0 0
0 0 0 0 0 0 0 0 0 0 0 0 0 0 0 0 0 0 0 0 0 0 0 0 0 0 0 0 0 0 0 0 0 0 0 0 0 0 0 0 0 0 0
0 0 0 0 0 0 0 0 0 0 0 0 0 0 0 0 0 0 0 0 0 -0 -0 -0 -0 -0 0 0 0 0 0 0 0 0 0 0 0 0 0 0 0 0 0
0 0 0 1 0 0 0 0 0 0 0 0 0 0 0 0 0 0 0 0 -0 -0 -0 -0 -0 -0 -0 -0 0 0 0 0 0 0 0 0 0 0 0 0 0 0 0
1 0 0 1 0 0 0 0 0 0 0 0 0 0 0 0 0 0 0 0 -0 -0 -0 -0 -0 -0 -0 0 0 0 0 0 0 0 0 0 0 0 0 0 0 0 0
1 1 1 0 0 0 0 0 0 0 0 0 0 0 0 0 0 0 0 0 -0 -0 -0 -0 -0 -0 0 0 0 0 0 0 0 0 0 0 0 0 0 0 0 0 0
1 1 1 1 0 0 0 0 0 0 0 0 0 0 0 0 0 0 0 -0 -0 -0 -0 -0 -0 -0 0 0 0 0 0 0 0 0 0 0 0 0 0 0 0 0 0
1 1 1 1 0 0 0 0 0 0 0 0 0 0 0 0 0 -0 0 -0 -0 -0 -0 -0 -0 -0 0 0 0 0 0 0 0 0 0 0 0 0 0 0 0 0 0
1 1 1 0 0 0 0 0 0 0 0 0 0 0 0 0 -0 -0 -0 -0 -0 -0 -0 -0 -0 -0 0 0 0 0 0 0 0 0 0 0 0 0 0 0 0 0 0
1 1 0 0 0 0 0 0 0 0 0 0 0 0 0 0 -0 -0 -0 -0 -0 -0 -0 -0 -0 0 0 0 0 0 0 0 0 -0 0 0 0 0 0 0 0 0 0
1 1 0 0 0 0 0 0 0 0 0 0 0 0 0 0 0 0 0 -0 -0 -0 -0 -0 -0 0 0 0 0 0 0 0 0 -0 0 0 0 0 0 0 0 0 0
1 1 0 0 0 0 0 0 0 0 0 0 0 0 0 0 0 0 0 0 -0 -0 -0 -0 0 0 0 0 0 0 0 0 0 0 0 0 0 0 0 0 0 0 0
1 1 0 0 0 0 0 0 0 0 0 0 0 0 0 0 0 0 0 0 0 -0 -0 0 0 0 0 0 0 0 0 0 0 0 0 0 0 0 0 0 0 0 0
1 1 1 1 0 0 0 0 0 0 0 0 0 0 0 0 0 0 0 0 0 0 0 0 0 0 0 0 0 0 0 0 0 0 0 0 0 0 0 0 0 0 0
1 1 1 1 1 0 0 0 0 0 0 0 0 0 0 0 0 0 0 0 0 0 0 0 0 0 0 0 0 0 0 0 0 0 0 0 0 0 0 0 0 0 0
1 1 1 1 1 1 1 0 0 0 0 0 0 0 0 0 0 0 0 0 0 0 0 0 0 0 0 0 0 0 0 0 0 0 0 0 0 0 0 0 0 0 0
2 1 1 1 1 1 1 1 1 1 0 0 0 0 0 0 0 0 0 0 0 0 0 0 0 0 0 0 0 0 0 0 0 0 0 0 0 0 0 0 0 0 0
2 2 1 1 1 1 1 1 1 1 1 0 0 0 0 0 0 0 0 0 0 0 0 0 0 0 0 0 0 0 0 0 0 0 0 0 0 0 0 0 0 0 0
2 2 2 1 1 1 1 1 1 1 1 0 0 0 0 0 0 0 0 0 0 0 0 0 0 0 0 0 0 0 0 0 0 0 0 0 0 0 0 0 0 0 0
2 2 2 1 1 1 1 1 1 1 1 0 0 0 0 0 0 0 0 0 0 0 0 0 0 0 0 0 0 0 0 0 0 0 0 0 0 0 0 0 0 0 0
2 2 2 1 1 1 1 1 1 0 0 0 0 0 0 0 0 0 0 0 0 0 0 0 0 0 0 0 0 0 0 0 0 0 0 0 0 0 0 0 0 0 0
2 2 1 1 1 1 1 1 0 0 0 0 0 0 0 0 0 0 0 0 0 0 0 0 0 0 0 0 0 0 0 0 0 0 0 0 0 0 0 0 0 0 0
1 1 1 1 1 1 1 1 0 0 0 0 0 0 0 0 0 0 0 0 0 0 0 0 0 0 0 0 0 0 0 0 0 0 0 0 0 0 0 0 0 0 0
Wind_Speed
9 11 18 18 18 18 18 18 18 18 18 18 18 18 18 18 18 17 17 17 17 16 17 17 17 17 17 17 17 17 17 18 17 17 17 17 17 17 17 17 16 12 17
13 14 19 19 19 18 18 18 17 17 17 17 17 17 17 17 17 17 17 16 16 16 17 17 16 17 17 17 17 17 17 17 17 17 17 16 16 15 16 16 15 11 16
17 14 17 19 19 19 18 17 17 17 17 17 17 17 17 16 16 16 16 16 16 16 16 16 16 16 16 16 16 15 16 16 16 17 15 8 10 15 15 16 16 16 16
17 13 15 20 20 19 18 17 16 17 17 17 16 16 16 16 16 16 16 16 16 16 16 15 15 15 15 15 14 14 14 14 15 15 7 6 7 14 15 15 15 16 16
14 12 16 22 20 20 19 18 17 17 17 16 16 16 16 16 16 16 16 16 16 15 15 15 14 14 14 13 13 12 12 13 14 12 6 6 6 13 15 15 15 15 15
14 12 16 22 21 20 19 18 17 17 16 16 16 16 16 16 16 16 16 16 15 15 14 14 13 13 12 11 11 10 12 14 12 7 6 5 5 12 14 14 15 15 14
14 11 15 21 21 20 19 18 18 17 17 17 16 16 16 16 16 16 15 15 14 14 13 12 12 11 11 10 9 10 11 15 9 7 5 5 6 12 14 14 14 14 14
16 13 14 21 21 20 19 18 18 17 17 17 16 16 16 15 15 15 15 14 14 13 12 11 10 9 9 8 8 9 12 14 11 8 5 5 10 12 14 13 13 13 13
15 13 10 12 15 19 19 18 18 17 17 17 16 16 16 15 15 14 14 14 13 12 11 10 9 8 7 7 7 8 11 14 8 5 8 5 11 13 13 13 13 13 13
12 11 10 9 9 9 12 17 18 17 17 17 17 16 16 15 15 14 12 12 12 11 10 9 8 6 6 6 7 9 13 13 6 5 4 6 12 13 13 12 12 12 12
12 10 10 10 9 8 8 14 15 16 16 15 14 17 13 6 6 8 11 12 12 11 9 8 6 5 5 5 7 11 11 4 5 4 3 10 12 13 12 12 12 11 11
15 12 10 11 10 9 9 8 5 7 7 6 5 7 5 4 4 7 10 12 11 10 8 6 5 4 3 3 5 8 4 6 4 4 5 12 12 12 12 11 11 11 11
16 14 12 11 10 9 6 6 4 3 4 5 6 6 5 4 4 4 3 4 5 6 3 3 2 1 1 2 3 4 5 4 3 3 6 12 11 12 11 11 10 10 10
16 15 13 12 10 8 7 6 5 4 4 4 5 6 5 4 4 3 2 3 2 2 2 1 1 1 1 3 4 5 5 4 3 3 5 12 10 11 11 11 10 10 10
16 15 15 14 12 9 8 6 7 6 5 5 5 5 6 5 5 4 3 3 2 2 2 2 2 2 2 3 4 6 6 5 5 4 4 11 11 10 11 11 10 10 10
17 16 14 14 12 10 9 7 7 7 6 5 5 6 7 5 5 4 4 3 3 3 3 3 3 3 2 2 4 5 6 6 5 4 3 6 11 10 10 11 10 10 10
16 15 14 14 12 12 10 9 8 7 7 6 6 6 7 7 6 5 4 4 3 3 3 3 2 2 2 2 3 5 5 5 5 5 4 3 4 8 10 10 10 9 9
14 14 15 14 12 11 9 8 7 7 7 6 6 6 7 7 7 6 4 4 4 3 3 3 2 2 2 2 2 3 4 4 5 5 4 4 3 4 7 10 9 9 9
15 15 14 12 12 10 9 7 7 7 7 6 6 5 6 7 8 6 5 4 4 3 3 3 2 2 2 2 2 2 2 3 4 5 5 5 4 3 3 6 8 8 9
13 13 12 11 11 9 7 6 5 6 5 5 6 6 7 6 7 6 4 4 4 4 3 2 3 2 2 2 2 2 1 2 3 4 5 4 4 5 4 4 3 5 8
12 12 12 12 11 9 7 7 7 6 5 5 5 7 7 7 7 6 5 4 4 4 4 4 3 3 1 2 3 2 2 1 1 3 3 3 4 5 5 4 3 3 3
14 14 13 12 11 10 7 6 5 5 4 5 5 6 7 7 7 6 6 5 5 4 4 4 3 3 1 2 3 3 2 3 2 1 2 3 4 3 4 6 4 4 3
14 15 13 13 12 10 9 5 5 4 3 3 4 5 6 7 7 6 7 6 5 5 5 4 4 4 3 1 2 4 4 3 1 2 1 2 3 3 3 4 5 5 5
13 12 11 12 12 10 10 9 9 7 6 5 5 4 5 6 7 7 7 6 5 4 5 5 4 3 4 2 1 1 2 4 3 0 2 1 2 3 4 4 5 5 5
12 11 11 11 11 10 10 11 10 7 5 4 4 6 5 5 6 6 6 6 6 5 5 5 4 4 3 3 3 2 1 1 2 3 1 1 1 2 3 3 4 4 5
9 10 11 11 11 11 11 11 10 10 8 8 7 7 6 4 4 6 7 6 6 5 5 5 5 5 4 3 3 2 3 3 2 3 3 2 2 2 2 2 3 4 4
Wind_Direction
146 147 138 131 125 120 116 112 108 106 104 102 102 102 103 104 106 108 109 109 109 108 107 107 107 107 108 109 109 110 110 111 111 111 110 109 108 107 106 105 103 102 105
145 147 140 134 129 124 120 117 113 111 108 107 106 106 106 107 108 109 110 110 110 110 109 108 108 108 108 109 110 110 110 110 109 108 108 108 107 106 107 106 107 110 108
141 143 140 136 132 128 125 122 119 116 113 111 109 109 109 110 111 112 112 111 110 110 110 109 109 108 109 110 110 111 111 110 109 106 104 99 106 108 109 109 109 109 108
140 140 141 138 135 132 129 127 123 120 117 115 114 113 112 113 115 114 114 113 113 112 111 110 110 110 111 111 111 112 112 112 112 107 96 97 106 111 110 110 110 110 110
137 139 144 140 138 135 133 130 128 125 122 120 118 117 116 116 115 115 115 115 114 114 113 112 112 112 112 111 109 110 110 112 113 103 93 87 97 114 114 114 114 113 112
137 140 146 142 140 138 136 135 133 130 128 125 123 121 120 119 118 117 117 117 116 115 114 114 114 112 112 110 107 107 111 115 109 101 100 100 104 117 118 117 116 115 114
139 142 146 144 143 142 140 138 136 134 132 129 128 126 124 123 123 121 120 119 119 118 117 117 117 116 113 110 108 108 115 118 111 105 105 104 113 119 119 117 117 117 118
142 143 146 146 145 145 144 142 141 139 136 134 132 130 128 127 126 126 125 125 124 124 123 122 121 118 113 107 104 106 116 126 119 117 112 109 121 120 120 118 119 120 121
141 142 144 147 148 148 147 146 145 143 141 139 137 135 134 133 132 130 130 130 130 130 129 128 126 121 112 104 99 105 121 125 119 124 124 116 123 124 123 123 124 124 124
141 145 145 145 144 146 148 149 147 147 145 144 142 141 140 139 137 136 134 135 135 135 136 135 132 123 108 99 98 106 122 123 118 114 115 130 130 130 129 128 128 128 128
149 151 149 147 145 144 148 154 151 150 150 149 147 146 141 132 132 137 142 142 141 141 142 141 137 126 104 91 100 109 114 113 113 115 127 138 138 136 135 133 131 131 132
159 159 157 154 152 153 157 147 149 149 148 143 142 139 133 135 144 145 152 148 148 147 148 148 142 127 94 82 99 106 107 117 115 128 142 142 142 141 140 138 138 137 138
162 162 162 160 159 161 149 151 150 142 143 144 148 145 144 142 143 134 140 144 143 144 135 142 128 93 93 107 109 121 129 126 135 142 150 148 147 147 146 145 145 145 145
163 164 163 163 164 162 152 158 154 151 156 159 164 158 149 145 143 146 145 144 139 132 135 128 123 111 101 109 114 129 136 135 138 136 158 155 155 155 154 153 153 153 153
166 168 168 166 167 163 156 165 162 162 167 168 167 164 157 154 156 156 157 156 158 148 151 152 149 134 118 108 124 132 139 142 145 152 156 163 163 162 162 161 162 162 162
171 170 169 169 167 163 165 168 165 167 167 167 168 168 161 158 159 158 160 164 164 162 160 154 151 137 132 130 137 141 146 150 156 157 155 168 172 171 172 171 171 172 172
170 169 170 168 166 168 169 171 167 169 167 168 166 166 162 159 158 157 159 162 165 158 146 130 123 112 122 126 130 138 151 159 164 164 163 162 174 181 180 180 181 180 180
165 166 169 170 167 168 166 166 164 169 166 167 163 163 163 160 158 154 157 163 159 144 133 128 118 109 109 121 132 143 152 162 167 169 168 170 174 184 190 190 188 187 189
167 167 169 164 165 166 161 157 157 163 164 162 157 159 164 163 159 152 157 162 155 141 138 148 121 126 129 135 147 140 148 161 166 172 177 180 185 185 185 198 196 196 199
165 165 166 162 163 159 155 146 143 149 158 155 159 163 161 162 156 147 152 155 150 140 142 139 134 129 140 148 130 117 141 161 165 179 186 185 190 190 189 194 193 204 207
163 165 167 165 167 163 160 160 156 158 161 160 165 164 160 159 154 152 153 151 151 153 163 156 139 135 128 119 88 52 14 24 176 185 182 179 191 194 188 190 185 186 202
171 171 170 171 171 171 166 161 156 148 158 162 164 163 161 159 159 162 155 159 160 153 157 156 139 133 133 130 125 106 48 1 334 230 193 189 192 184 190 194 186 188 187
174 175 175 174 171 169 159 146 136 125 123 138 158 165 170 168 168 163 162 161 165 160 167 170 155 144 151 168 149 142 147 199 275 323 259 202 188 186 196 189 187 189 192
178 174 173 173 171 168 164 161 160 164 167 173 168 168 171 174 173 168 165 166 167 166 168 176 162 149 146 159 170 157 158 155 150 208 323 288 214 199 199 193 186 189 191
172 171 171 168 170 171 171 169 167 168 168 151 153 165 173 178 179 172 169 166 170 172 173 172 156 154 151 158 165 161 130 112 127 140 200 290 306 246 212 197 186 188 189
165 170 172 173 176 176 174 174 174 171 166 161 167 175 180 180 184 181 175 172 176 176 176 174 165 159 159 153 157 160 156 156 169 155 170 208 236 268 244 214 201 195 194